#timestamp,LO_Frequency,Hit,StdDev 
1701655215.8,286047001.8,N
1701655235.6,286047002.6,N
1701655255.5,286047001.4,N
1701655275.3,286047002.0,N
1701655295.2,286046999.8,N
1701655315.9,286047002.3,N
1701655335.7,286047002.6,N
1701655355.6,286046999.8,N
1701655375.4,286047002.4,N
1701655395.2,286046999.8,N
1701655415.1,286047002.0,N
1701655416.0,286047002.0,N
1701655435.8,286047002.0,N
1701655455.7,286047003.9,Y
1701655475.5,286047002.7,P
1701655495.3,286047004.1,P
1701655515.2,286047001.9,N
1701655535.0,286047001.7,N
1701655535.9,286047001.7,N
1701655555.8,286047004.2,Y
1701655575.6,286047000.5,P
1701655595.4,286046999.8,N
1701655615.3,286046999.8,N
1701655635.1,286047000.5,N
1701655655.8,286047000.0,N
1701655675.7,286047002.8,Y
1701655695.5,286047002.4,P
1701655715.4,286046998.4,N
1701655735.2,286046996.9,N
1701655755.0,286046996.8,N
1701655755.9,286046996.8,N
1701655775.8,286046999.3,N
1701655795.6,286046999.4,N
1701655815.4,286046998.2,N
1701655835.3,286046998.8,N
1701655855.1,286046998.8,N
1701655875.9,286047001.2,N
1701655895.7,286047000.8,N
1701655915.5,286047000.4,N
1701655935.4,286046998.2,N
1701655955.2,286046998.2,N
1701655975.0,286046999.6,N
1701655975.9,286046999.6,N
1701655995.8,286046999.1,N
1701656015.6,286046997.0,N
1701656035.5,286046999.1,N
1701656055.3,286046996.5,N
1701656075.1,286046998.5,N
1701656095.9,286046999.0,N
1701656115.7,286046997.0,N
1701656135.5,286046996.7,N
1701656155.4,286046995.4,Y
1701656175.2,286046997.9,P
1701656195.1,286046997.2,P
1701656196.0,286046997.2,P
1701656215.8,286046995.4,Y
1701656235.7,286046998.3,P
1701656255.5,286047000.3,N
1701656275.3,286047001.1,N
1701656295.2,286047002.3,N
1701656315.0,286047000.1,N
1701656315.9,286047000.1,N
1701656335.7,286046999.7,N
1701656355.6,286047002.2,N
1701656375.4,286047002.3,N
1701656395.3,286046999.9,N
1701656415.1,286047001.9,N
1701656416.0,286047001.9,N
1701656435.8,286047002.2,N
1701656455.7,286047000.4,N
1701656475.5,286047002.5,N
1701656495.3,286047000.2,N
1701656515.2,286047002.5,N
1701656535.0,286047002.5,N
1701656535.9,286047002.5,N
1701656555.8,286047002.7,N
1701656575.6,286047000.2,N
1701656595.4,286046998.3,N
1701656615.3,286046999.6,N
1701656635.1,286046998.2,N
1701656655.8,286047000.7,N
1701656675.7,286047001.0,N
1701656695.5,286046999.9,N
1701656715.4,286047000.0,N
1701656735.2,286047002.1,N
1701656755.0,286047002.5,N
1701656755.9,286047002.5,N
1701656775.8,286047001.6,N
1701656795.6,286046999.9,N
1701656815.4,286047001.6,N
1701656835.3,286047001.4,N
1701656855.1,286047001.5,N
1701656875.9,286047003.8,N
1701656895.7,286047004.4,Y
1701656915.5,286046999.8,P
1701656935.4,286047000.8,N
1701656955.2,286047000.5,N
1701656975.0,286047000.3,N
1701656975.9,286047000.3,N
1701656995.8,286046999.8,N
1701657015.6,286047002.3,Y
1701657035.5,286047002.6,P
1701657055.3,286046999.9,N
1701657075.1,286047002.3,N
1701657095.9,286047002.4,N
1701657115.7,286047000.0,N
1701657135.5,286047000.7,N
1701657155.4,286047000.2,N
1701657175.2,286047002.7,N
1701657195.1,286046999.7,N
1701657196.0,286046999.7,N
1701657215.8,286046999.7,N
1701657235.6,286047002.3,N
1701657255.5,286046999.8,N
1701657275.3,286047002.5,N
1701657295.1,286047002.5,N
1701657315.9,286047002.1,N
1701657335.7,286047002.6,N
1701657355.6,286047001.0,N
1701657375.4,286047001.1,N
1701657395.2,286047000.5,N
1701657415.1,286047002.4,N
1701657416.0,286047002.4,N
1701657435.8,286047001.9,N
1701657455.7,286047002.5,N
1701657475.5,286047001.9,N
1701657495.3,286047002.2,N
1701657515.2,286047002.8,N
1701657535.0,286047000.0,N
1701657535.9,286047000.0,N
1701657555.8,286047002.8,N
1701657575.6,286047001.0,N
1701657595.4,286046998.2,N
1701657615.3,286047000.2,N
1701657635.1,286047001.1,N
1701657655.9,286046999.8,N
1701657675.7,286047001.5,N
1701657695.5,286047001.5,N
1701657715.4,286046999.9,N
1701657735.2,286046999.7,N
1701657755.0,286046999.9,N
1701657755.9,286046999.9,N
1701657775.8,286047000.2,N
1701657795.6,286047000.1,N
1701657815.5,286046999.7,N
1701657835.3,286047002.3,N
1701657855.1,286047000.2,N
1701657875.9,286047001.0,N
1701657895.7,286047000.3,N
1701657915.5,286047000.6,N
1701657935.4,286047000.7,N
1701657955.2,286046998.1,N
1701657975.1,286046998.4,N
1701657976.0,286046998.4,N
1701657995.8,286046998.8,N
1701658015.6,286047001.0,N
1701658035.5,286046998.7,N
1701658055.3,286046996.5,N
1701658075.1,286047000.7,N
1701658095.9,286047000.0,N
1701658115.7,286047000.6,N
1701658135.6,286046998.2,N
1701658155.4,286046998.2,N
1701658175.2,286047000.5,N
1701658195.1,286046999.7,N
1701658196.0,286046999.7,N
1701658215.8,286047002.3,N
1701658235.7,286046999.7,N
1701658255.5,286047000.3,N
1701658275.3,286046998.4,N
1701658295.2,286046998.4,N
1701658315.0,286046998.5,N
1701658315.9,286046998.5,N
1701658335.7,286046998.7,N
1701658355.6,286046998.8,N
1701658375.4,286046997.7,N
1701658395.3,286046997.4,N
1701658415.1,286046998.5,N
1701658416.0,286046998.5,N
1701658435.8,286046998.4,N
1701658455.7,286046996.6,N
1701658475.5,286046998.8,N
1701658495.3,286046996.5,N
1701658515.2,286046999.2,N
1701658535.0,286046999.5,N
1701658535.9,286046999.5,N
1701658555.8,286046999.4,N
1701658575.6,286046999.0,N
1701658595.4,286047000.7,N
1701658615.3,286047000.6,N
1701658635.1,286047000.6,N
1701658655.8,286046999.7,N
1701658675.7,286047002.3,N
1701658695.5,286047001.5,N
1701658715.4,286047001.7,N
1701658735.2,286047001.7,N
1701658755.0,286047001.8,N
1701658755.9,286047001.8,N
1701658775.8,286047001.5,N
1701658795.6,286047002.5,N
